Chamberlain, SD

7:42 AM CDT on October 23, 2017 (GMT -0500)
Chamberlain

Weather History for K9V9 - November, 2012

Change the Weather History Date:

Friday, November 2, 2012

  Actual Average Record
Temperature  
Mean Temperature 38 °F -  
Max Temperature 41 °F 49 °F 77 °F (2008)
Min Temperature 34 °F 28 °F 15 °F (2006)
Degree Days  
Heating Degree Days 28    
Moisture  
Dew Point 26 °F    
Average Humidity 65    
Maximum Humidity 73    
Minimum Humidity 57    
Precipitation  
Precipitation 0.00 in - - ()
Sea Level Pressure  
Sea Level Pressure 30.05 in    
Wind  
Wind Speed 12 mph (East)    
Max Wind Speed 21 mph    
Max Gust Speed 28 mph    
Averages and records for this station are not official NWS values.
T = Trace of Precipitation, MM = Missing Value Source: NWS Daily Summary

Daily Weather History Graph

Daily Weather History Graph

Search for Another Location

Airport or City:

Trip Planner

Search our weather history database for the weather conditions in past years. The results will help you decide how hot, cold, wet, or windy it might be!

Date:

Astronomy

Nov. 02, 2012 Rise Set
Actual Time 8:15 AM CDT 6:25 PM CDT
Civil Twilight 7:45 AM CDT 6:55 PM CDT
Nautical Twilight 7:11 AM CDT 7:29 PM CDT
Astronomical Twilight 6:37 AM CDT 8:03 PM CDT
Moon 9:10 PM CDT (11/2) 11:41 AM CDT (11/2)
Length of Visible Light 11h 10m
Length of Day
10h 10m
Waning Gibbous, 87% of the Moon is Illuminated
Nov 2
Waning Gibbous
Nov 6
Last Quarter
Nov 13
New
Nov 20
First Quarter
Nov 28
Full

Hourly Weather History & Observations

Time (CDT) Temp. Windchill Dew Point Humidity Pressure Visibility Wind Dir Wind Speed Gust Speed Precip Events Conditions
12:52 AM 37.0 °F 27.4 °F 25.0 °F 62% 29.97 in - ESE 17.3 mph - N/A   Unknown
1:52 AM 36.0 °F 25.6 °F 25.0 °F 64% 29.96 in - ESE 18.4 mph 27.6 mph N/A   Unknown
2:52 AM 35.1 °F 24.8 °F 24.1 °F 64% 29.95 in - ESE 17.3 mph - N/A   Unknown
3:52 AM 35.1 °F 24.1 °F 24.1 °F 64% 29.95 in - ESE 19.6 mph - N/A   Unknown
4:52 AM 34.0 °F 22.4 °F 24.1 °F 67% 29.93 in - SE 20.7 mph 26.5 mph N/A   Unknown
5:52 AM 34.0 °F 24.2 °F 24.1 °F 67% 29.96 in - ESE 15.0 mph - N/A   Unknown
6:52 AM 34.0 °F 24.2 °F 24.1 °F 67% 29.97 in - ESE 15.0 mph - N/A   Unknown
7:52 AM 34.0 °F 27.2 °F 24.1 °F 67% 30.01 in - East 8.1 mph - N/A   Unknown
8:52 AM 34.0 °F 26.6 °F 24.1 °F 67% 30.02 in - East 9.2 mph - N/A   Unknown
9:52 AM 35.1 °F 27.4 °F 25.0 °F 67% 30.04 in - ESE 10.4 mph - N/A   Unknown
10:52 AM 36.0 °F 31.1 °F 25.0 °F 64% 30.06 in - East 5.8 mph - N/A   Unknown
11:52 AM 37.0 °F 31.6 °F 26.1 °F 65% 30.07 in - ESE 6.9 mph - N/A   Unknown
12:52 PM 37.9 °F - 27.0 °F 65% 30.08 in - Calm Calm - N/A   Unknown
1:52 PM 39.0 °F 35.7 °F 27.0 °F 62% 30.09 in - NW 4.6 mph - N/A   Unknown
2:52 PM 39.9 °F 35.8 °F 27.0 °F 60% 30.08 in - NW 5.8 mph - N/A   Unknown
3:52 PM 41.0 °F 37.1 °F 27.0 °F 57% 30.07 in - North 5.8 mph - N/A   Unknown
4:52 PM 41.0 °F 37.1 °F 28.0 °F 60% 30.09 in - North 5.8 mph - N/A   Unknown
5:52 PM 39.9 °F 35.1 °F 27.0 °F 60% 30.11 in - North 6.9 mph - N/A   Unknown
6:52 PM 39.0 °F - 27.0 °F 62% 30.12 in - Calm Calm - N/A   Unknown
7:52 PM 37.0 °F 33.3 °F 27.0 °F 67% 30.13 in - East 4.6 mph - N/A   Unknown
8:52 PM 36.0 °F - 27.0 °F 70% 30.14 in - Calm Calm - N/A   Unknown
9:52 PM 37.0 °F - 28.0 °F 70% 30.15 in - Calm Calm - N/A   Unknown
10:52 PM 37.9 °F - 28.9 °F 70% 30.15 in - Calm Calm - N/A   Unknown
11:52 PM 37.0 °F 32.4 °F 28.9 °F 73% 30.15 in - South 5.8 mph - N/A   Unknown